Date String (YYYY-MM-DD hh:mm:ss) UTC,Instrument flags,Ambient pressure (hPa),Sample flow (lpm),Bypass flow (lpm),Sample temperature (°C),Ambient temperature (°C),ASC tube jacket temperature (°C),LED temperature (°C),Box temperature (°C),Sample RH (%),Span deviation,Mass concentration (μg/m³),Mass concentration (μg/m³),Mass concentration (μg/m³)
DateTimeUTC,F1_M11,P_M11,Q1_M11,Q2_M11,T1_M11,T2_M11,T3_M11,T4_M11,T5_M11,U1_M11,ZSPAN_M11,X0_M11,X2_M11,X1_M11
2022-12-13 20:00:00,,0810.2,4.97,0.00,20.6,21.1,00.0,29.3,22.3,10.1,0000.0,0017.65,0005.79,0004.85
2022-12-13 20:01:00,,0810.2,5.02,0.00,20.5,20.2,00.0,29.4,22.1,10.1,0000.0,0016.63,0005.79,0004.85
2022-12-13 20:02:00,,0810.2,5.00,0.00,20.5,19.3,00.0,29.4,21.9,10.2,0000.0,0016.98,0005.84,0004.86
2022-12-13 20:03:00,,0810.2,4.99,0.00,20.4,18.7,00.0,29.3,21.7,10.3,0000.0,0016.89,0005.87,0004.87
2022-12-13 20:04:00,,0810.2,4.99,0.00,20.3,18.2,00.0,29.3,21.6,10.2,0000.0,0017.83,0005.88,0004.88
2022-12-13 20:05:00,,0810.2,5.05,0.00,20.3,19.1,00.0,29.3,21.7,10.1,0000.0,0018.29,0005.91,0004.89
2022-12-13 20:06:00,,0810.3,4.96,0.00,20.4,20.6,00.0,29.3,22.1,10.0,0000.1,0017.98,0005.98,0004.88
2022-12-13 20:07:00,,0810.3,5.00,0.00,20.6,21.4,00.0,29.3,22.4,09.9,0000.4,0020.39,0006.05,0004.87
2022-12-13 20:08:00,,0810.2,5.01,0.00,20.6,20.8,00.0,29.4,22.3,09.9,0000.5,0021.41,0006.06,0004.86
2022-12-13 20:09:00,,0810.2,4.99,0.00,20.6,19.9,00.0,29.4,22.1,10.0,0000.2,0020.82,0006.10,0004.87
2022-12-13 20:10:00,,0810.2,4.99,0.00,20.5,19.1,00.0,29.4,21.9,10.1,0000.3,0020.27,0006.16,0004.90
2022-12-13 20:11:00,,0810.2,5.05,0.00,20.4,18.4,00.0,29.4,21.7,10.1,0000.6,0020.55,0006.23,0004.90
2022-12-13 20:12:00,,0810.2,4.95,0.00,20.3,18.0,00.0,29.3,21.5,10.2,0000.8,0020.31,0006.28,0004.91
2022-12-13 20:13:00,,0810.2,5.03,0.00,20.3,18.9,00.0,29.3,21.7,10.2,0001.1,0020.49,0006.33,0004.91
2022-12-13 20:14:00,,0810.3,4.99,0.00,20.4,20.3,00.0,29.3,22.0,10.1,0001.5,0020.60,0006.36,0004.92
2022-12-13 20:15:00,,0810.3,4.99,0.00,20.5,21.4,00.0,29.3,22.3,10.0,0001.0,0021.17,0006.44,0004.93
2022-12-13 20:16:00,,0810.4,5.02,0.00,20.6,20.9,00.0,29.3,22.3,09.9,0001.0,0021.02,0006.47,0004.92
2022-12-13 20:17:00,,0810.4,4.99,0.00,20.6,20.1,00.0,29.4,22.1,09.9,0001.4,0020.77,0006.42,0004.92
2022-12-13 20:18:00,,0810.3,4.99,0.00,20.5,19.4,00.0,29.4,22.0,09.9,0000.6,0019.63,0006.40,0004.94
2022-12-13 20:19:00,,0810.3,5.05,0.00,20.4,18.8,00.0,29.4,21.8,09.9,0000.0,0018.64,0006.42,0004.95
2022-12-13 20:20:00,,0810.3,4.96,0.00,20.4,18.3,00.0,29.3,21.7,09.9,0000.0,0019.93,0006.44,0004.93
2022-12-13 20:21:00,,0810.3,5.06,0.00,20.3,18.2,00.0,29.3,21.5,10.0,0000.0,0021.34,0006.42,0004.90
2022-12-13 20:22:00,,0810.2,4.97,0.00,20.3,19.8,00.0,29.3,21.9,10.0,0000.0,0021.99,0006.38,0004.88
2022-12-13 20:23:00,,0810.3,5.03,0.00,20.5,21.2,00.0,29.3,22.3,10.0,0000.0,0023.04,0006.31,0004.86
2022-12-13 20:24:00,,0810.3,4.98,0.00,20.6,21.5,00.0,29.4,22.5,09.8,0000.0,0022.77,0006.22,0004.83
2022-12-13 20:25:00,,0810.3,4.99,0.00,20.6,20.6,00.0,29.4,22.3,09.8,0000.0,0022.86,0006.16,0004.82
2022-12-13 20:26:00,,0810.3,4.99,0.00,20.6,19.7,00.0,29.4,22.1,09.8,0000.0,0022.57,0006.11,0004.80
2022-12-13 20:27:00,,0810.4,5.05,0.00,20.5,19.0,00.0,29.4,21.9,09.9,0000.0,0021.10,0006.07,0004.80
2022-12-13 20:28:00,,0810.3,4.95,0.00,20.4,18.5,00.0,29.4,21.7,09.9,0000.0,0021.10,0006.09,0004.81
2022-12-13 20:29:00,,0810.4,5.04,0.00,20.3,18.0,00.0,29.3,21.6,09.9,0001.4,0020.43,0006.14,0004.81
2022-12-13 20:30:00,,0810.4,4.99,0.00,20.3,18.8,00.0,29.3,21.7,09.9,0001.7,0020.79,0006.12,0004.81
2022-12-13 20:31:00,,0810.4,4.98,0.00,20.4,20.4,00.0,29.3,22.1,09.8,0001.9,0019.97,0006.05,0004.81
2022-12-13 20:32:00,,0810.5,5.00,0.00,20.6,21.5,00.0,29.3,22.4,09.8,0002.0,0019.94,0006.10,0004.82
2022-12-13 20:33:00,,0810.4,5.00,0.00,20.7,21.1,00.0,29.4,22.4,09.8,0000.8,0019.93,0006.11,0004.83
2022-12-13 20:34:00,,0810.4,5.01,0.00,20.6,20.3,00.0,29.4,22.2,09.8,0001.1,0020.10,0006.10,0004.84
2022-12-13 20:35:00,,0810.5,4.96,0.00,20.6,19.6,00.0,29.4,22.1,09.8,0001.4,0021.55,0006.12,0004.86
2022-12-13 20:36:00,,0810.5,5.05,0.00,20.5,19.0,00.0,29.4,22.0,09.8,0002.0,0021.80,0006.18,0004.88
2022-12-13 20:37:00,,0810.4,4.95,0.00,20.5,18.6,00.0,29.4,21.8,09.8,0001.4,0021.35,0006.13,0004.88
2022-12-13 20:38:00,,0810.5,5.05,0.00,20.4,18.2,00.0,29.4,21.7,09.9,0002.2,0021.22,0006.10,0004.88
2022-12-13 20:39:00,,0810.5,4.97,0.00,20.4,18.8,00.0,29.3,21.8,09.8,0001.2,0020.87,0006.04,0004.87
2022-12-13 20:40:00,,0810.5,5.00,0.00,20.5,20.4,00.0,29.3,22.1,09.8,-000.6,0020.63,0005.99,0004.87
2022-12-13 20:41:00,,0810.6,4.99,0.00,20.6,21.4,00.0,29.4,22.5,09.8,-000.0,0019.60,0005.98,0004.86
2022-12-13 20:42:00,,0810.6,5.02,0.00,20.7,21.1,00.0,29.4,22.5,09.7,0000.0,0019.23,0006.10,0004.86
2022-12-13 20:43:00,,0810.6,4.98,0.00,20.7,20.2,00.0,29.4,22.3,09.7,0000.0,0017.68,0006.08,0004.86
2022-12-13 20:44:00,,0810.6,5.00,0.00,20.6,19.5,00.0,29.4,22.1,09.7,0000.0,0017.96,0006.05,0004.87
2022-12-13 20:45:00,,0810.6,5.05,0.00,20.6,18.9,00.0,29.4,21.9,09.7,0000.0,0018.94,0006.14,0004.89
2022-12-13 20:46:00,,0810.6,4.95,0.00,20.5,18.4,00.0,29.4,21.7,09.7,0000.0,0019.55,0006.20,0004.90
2022-12-13 20:47:00,,0810.6,5.05,0.00,20.4,18.1,00.0,29.4,21.6,09.8,0000.0,0021.67,0006.20,0004.90
2022-12-13 20:48:00,,0810.6,4.98,0.00,20.3,18.6,00.0,29.3,21.7,09.7,0000.0,0022.21,0006.21,0004.92
2022-12-13 20:49:00,,0810.6,5.01,0.00,20.5,20.3,00.0,29.3,22.1,09.6,0000.0,0023.31,0006.27,0004.94
2022-12-13 20:50:00,,0810.6,4.98,0.00,20.6,21.5,00.0,29.4,22.4,09.6,0000.0,0023.93,0006.30,0004.94
2022-12-13 20:51:00,,0810.6,5.01,0.00,20.7,21.3,00.0,29.4,22.5,09.6,0000.0,0024.20,0006.33,0004.96
2022-12-13 20:52:00,,0810.6,4.99,0.00,20.7,20.5,00.0,29.4,22.4,09.6,0000.0,0025.34,0006.37,0004.97
2022-12-13 20:53:00,,0810.6,5.00,0.00,20.7,19.8,00.0,29.5,22.2,09.6,0000.0,0026.01,0006.34,0004.99
2022-12-13 20:54:00,,0810.6,4.99,0.00,20.6,19.2,00.0,29.4,22.0,09.6,0000.0,0026.92,0006.34,0005.01
2022-12-13 20:55:00,,0810.6,5.03,0.00,20.5,18.7,00.0,29.4,21.9,09.7,0000.0,0026.91,0006.39,0005.02
2022-12-13 20:56:00,,0810.6,4.97,0.00,20.4,18.3,00.0,29.4,21.8,09.6,0000.0,0025.43,0006.37,0005.02
2022-12-13 20:57:00,,0810.6,5.03,0.00,20.4,18.1,00.0,29.4,21.7,09.5,0000.0,0024.28,0006.39,0005.01
2022-12-13 20:58:00,,0810.6,4.97,0.00,20.4,19.4,00.0,29.3,21.9,09.5,0000.0,0022.57,0006.36,0004.99
2022-12-13 20:59:00,,0810.6,5.03,0.00,20.5,20.8,00.0,29.3,22.3,09.4,0000.0,0021.49,0006.30,0004.97
